Theta_e
310 312 313 314 313 313 315 315 323 328 332 332 330 327 328 326 326 331 335 334 334 332 329 328 327 326 325 325 324 322 323 322 323 321 320 321 321 320 321 322 323 324 326
308 311 312 312 315 316 321 321 327 331 331 332 327 326 325 324 326 327 332 333 333 334 332 327 326 325 324 323 324 324 321 321 323 318 316 311 315 319 320 320 321 322 325
306 308 309 311 315 320 324 327 329 331 332 330 328 325 325 324 323 323 325 329 334 333 329 328 326 325 326 324 323 323 321 316 320 317 314 309 306 308 314 318 319 320 320
307 307 308 309 317 321 327 330 331 332 332 330 328 327 322 321 321 323 324 326 329 329 329 328 326 325 324 323 321 322 318 316 313 317 318 313 311 307 307 314 316 319 319
304 305 306 310 318 325 327 330 331 331 329 329 329 325 322 321 321 322 323 323 325 328 330 328 326 324 322 322 321 319 318 317 315 314 314 313 313 312 308 307 313 316 317
304 305 308 318 322 325 328 329 331 327 328 327 326 324 322 320 321 320 321 322 323 324 327 327 324 323 322 321 320 320 319 317 316 316 315 313 312 311 310 307 308 310 314
301 309 317 320 323 326 327 327 329 325 325 324 323 323 322 322 321 320 320 321 320 321 323 324 323 321 322 321 320 319 319 318 317 317 316 316 314 315 312 310 308 308 318
301 309 318 320 324 326 327 326 327 324 324 323 322 321 322 322 321 321 321 321 321 321 322 323 322 322 323 323 321 320 319 318 318 318 318 317 317 317 318 314 311 308 312
303 314 319 322 325 326 325 325 325 324 324 323 322 321 322 322 321 321 321 322 321 322 322 322 322 322 322 322 320 319 319 320 319 320 319 318 318 319 320 316 315 312 308
310 317 322 324 325 325 324 324 325 324 323 322 322 323 322 322 323 323 322 322 322 323 322 321 322 321 322 322 320 319 320 320 320 321 320 318 319 322 321 319 316 314 314
315 319 323 325 325 325 325 324 324 323 322 322 321 321 322 323 323 323 323 323 322 322 322 323 322 322 322 321 320 319 321 320 319 319 320 319 319 322 320 319 317 315 318
316 321 324 324 324 325 324 325 324 323 322 321 321 321 321 321 321 323 323 321 321 322 323 323 323 323 323 322 320 321 321 320 320 320 319 321 322 320 320 318 315 316 317
318 321 322 323 324 325 325 324 324 323 321 321 322 321 320 321 322 322 322 321 321 322 323 324 323 323 323 322 322 323 322 322 323 322 321 321 320 319 319 316 317 318 319
319 321 321 322 324 326 325 325 323 323 321 322 321 320 320 321 322 322 322 322 322 322 322 322 324 324 324 324 324 323 321 323 323 324 323 323 322 321 320 319 320 320 319
319 320 321 322 324 324 325 325 323 322 321 322 321 320 321 322 322 322 322 323 323 324 325 326 325 322 323 323 323 321 321 322 323 324 325 324 323 320 321 322 322 320 318
319 321 322 323 323 324 324 324 321 321 322 322 321 322 322 322 321 322 322 321 321 324 323 323 320 318 318 305 311 318 321 320 322 321 322 322 319 315 313 315 316 319 318
320 320 321 323 324 324 325 321 319 319 321 322 324 325 323 322 321 322 321 319 319 319 318 317 317 315 314 301 303 309 321 320 322 320 323 323 320 318 319 311 312 312 311
320 321 322 323 324 323 321 319 318 320 322 323 324 324 324 322 322 321 319 317 316 318 315 315 314 313 312 301 303 307 320 319 320 322 322 320 320 318 318 320 319 320 320
322 322 323 323 323 319 318 319 318 321 322 324 324 324 324 322 322 320 318 316 316 316 314 314 313 313 312 301 302 315 323 323 323 323 322 321 319 303 305 319 316 315 314
322 322 323 323 321 318 318 316 318 321 321 323 324 324 323 323 321 319 318 317 318 321 318 315 312 309 313 300 303 316 322 320 319 320 318 308 313 301 305 319 317 314 314
322 322 322 320 320 317 317 315 319 320 322 324 324 324 323 322 321 319 318 318 321 322 318 315 312 313 314 311 301 306 317 320 319 318 317 313 300 300 301 308 319 314 316
321 323 320 319 317 318 318 314 317 321 322 323 324 323 322 325 322 320 318 318 316 316 314 315 311 316 316 302 300 301 307 309 319 318 317 308 298 299 299 307 300 302 311
321 323 320 316 316 318 318 314 315 316 322 322 322 321 323 323 321 319 321 320 316 318 317 317 316 316 316 314 300 297 299 305 316 318 309 298 296 297 300 299 300 307 318
321 320 316 316 315 317 317 317 314 317 322 320 321 322 322 320 320 321 322 320 318 318 319 318 316 317 315 316 314 311 308 304 308 304 307 305 305 305 306 308 313 317 317
323 319 317 317 317 317 316 315 315 319 320 321 322 323 321 321 319 321 320 320 317 318 319 321 318 316 314 316 309 310 312 314 309 311 315 316 316 314 316 318 318 317 317
322 320 317 317 317 317 316 315 316 320 321 320 321 322 321 320 319 316 313 294 299 303 304 304 312 316 307 298 297 297 297 296 298 313 316 316 316 316 316 317 318 317 313
Wind_Speed
11 15 14 12 9 9 9 9 8 7 9 6 5 4 6 4 3 4 8 8 7 8 7 5 5 5 6 7 7 3 4 4 2 2 0 2 4 4 4 3 3 4 5
11 17 12 9 11 9 9 8 7 9 6 4 4 4 4 3 3 4 6 8 8 9 8 6 5 6 4 4 4 4 2 3 5 2 2 1 2 2 4 4 4 6 3
14 15 10 11 8 9 8 7 8 9 8 9 7 4 4 4 3 3 3 3 6 6 6 6 5 5 4 4 4 4 5 3 2 1 4 2 4 1 1 4 4 4 3
14 10 11 9 10 8 6 6 8 9 8 8 8 11 5 4 2 3 3 4 5 6 5 5 5 5 3 4 4 4 3 3 3 1 2 1 3 2 2 2 0 2 3
11 13 11 11 6 7 6 7 7 8 9 7 9 7 5 4 3 3 6 4 4 6 6 6 4 4 4 4 5 4 5 3 3 3 2 1 1 2 2 1 1 1 1
10 10 7 4 5 6 7 8 10 7 8 7 8 9 8 7 5 4 4 4 3 3 4 5 5 4 4 4 4 4 5 4 3 3 3 4 4 3 2 1 1 1 2
9 7 7 7 8 10 8 7 10 8 7 8 7 7 8 8 8 6 4 5 3 2 3 5 5 3 4 4 4 4 5 5 4 5 4 3 3 3 3 3 1 2 1
8 9 9 8 9 9 10 9 10 9 8 8 8 6 8 5 5 5 4 4 3 3 4 4 4 4 4 4 4 3 3 4 4 5 5 4 4 4 3 4 5 3 1
9 9 8 7 10 10 8 10 10 10 9 9 8 7 6 7 6 6 4 3 3 3 5 5 4 4 4 4 4 3 4 4 4 5 5 4 4 4 4 4 3 6 3
9 9 10 11 9 10 8 8 9 12 10 9 7 6 7 6 6 5 6 5 4 4 5 4 4 4 3 4 4 3 3 5 4 4 5 4 3 4 3 3 3 2 4
8 11 12 11 11 10 10 9 10 11 9 8 7 7 6 6 6 5 5 6 5 6 5 5 4 3 4 3 3 3 4 4 4 3 5 4 2 3 3 3 3 3 5
6 9 13 13 12 12 11 10 8 10 8 7 7 6 6 6 5 5 5 5 5 4 5 4 3 3 4 3 4 4 4 5 5 5 4 3 2 3 3 4 4 5 4
6 10 11 12 12 11 10 9 8 8 7 7 7 6 6 6 6 6 5 5 6 5 4 4 4 4 3 3 3 5 5 4 4 4 3 3 4 3 3 4 6 6 5
6 8 11 11 12 11 10 10 7 7 7 7 7 7 7 6 6 6 5 5 5 6 5 5 4 3 3 3 3 4 3 3 3 4 4 4 4 4 6 5 9 9 9
12 10 13 12 11 11 9 9 8 7 7 7 7 7 6 6 5 5 5 5 4 4 5 5 5 4 4 2 3 4 4 4 4 4 5 5 5 6 7 7 9 11 8
15 13 14 13 13 12 11 9 8 7 7 7 7 6 6 6 5 5 5 5 4 5 7 6 6 6 2 4 3 5 5 4 4 4 5 4 4 5 8 9 10 12 14
18 17 17 15 13 13 12 10 8 7 7 8 7 7 7 6 6 5 6 6 6 6 7 6 6 5 2 5 3 6 4 4 4 4 4 3 2 5 5 8 11 11 9
16 15 14 13 12 10 9 8 8 8 8 7 8 6 6 6 6 5 6 5 4 5 5 5 5 5 1 3 7 8 5 5 4 4 4 5 4 4 6 8 9 10 9
13 13 14 14 12 11 10 10 8 8 8 8 8 7 7 7 6 6 6 5 5 4 4 4 5 4 2 4 8 7 4 4 5 4 5 5 6 7 10 11 12 11 9
12 13 13 12 13 10 11 11 9 9 9 9 8 7 7 7 7 6 6 4 4 4 4 4 4 3 2 3 6 6 3 4 4 5 5 9 7 8 11 11 13 13 11
15 12 13 14 15 12 12 11 10 11 10 8 7 7 7 7 7 6 3 5 5 5 5 5 3 3 3 4 3 7 4 3 4 4 4 3 10 10 12 10 9 11 12
8 14 13 11 10 13 13 11 12 10 8 9 8 8 7 6 6 7 4 6 6 6 5 5 3 1 3 7 3 6 7 5 5 4 4 4 9 12 13 11 15 15 13
11 12 12 10 9 12 13 13 11 9 9 9 8 7 7 6 7 7 8 6 5 5 5 6 3 1 2 2 4 5 7 7 5 4 7 11 10 12 12 17 14 11 8
8 11 12 12 10 9 10 12 9 9 11 9 8 8 8 7 6 5 6 7 5 5 6 5 5 3 2 2 3 3 4 7 7 8 6 6 8 9 9 9 7 6 6
8 9 12 12 13 11 9 7 10 10 10 9 9 8 6 7 6 5 4 6 4 7 7 6 5 5 4 4 6 7 4 5 6 7 4 5 4 6 6 5 5 5 6
7 9 9 8 10 11 9 7 10 11 11 9 8 7 7 5 5 6 3 7 2 9 8 5 7 4 5 10 9 9 11 13 11 4 4 4 5 6 5 5 6 4 4
Wind_Direction
263 270 266 264 269 246 220 210 186 164 144 148 145 148 175 148 146 163 166 161 153 156 158 176 182 164 184 194 191 171 199 222 208 187 63 270 240 241 231 215 230 252 235
278 273 271 259 249 243 216 216 184 157 156 123 113 138 139 123 136 150 161 162 165 164 178 177 182 181 192 190 197 207 223 228 182 157 94 280 313 255 214 203 213 227 231
258 269 273 249 250 230 208 188 154 137 136 129 116 80 75 72 82 80 90 148 160 171 165 179 181 202 198 206 207 199 193 178 203 198 139 126 230 338 319 210 202 212 213
250 253 260 267 229 217 138 145 132 139 132 143 128 147 139 135 140 138 146 175 173 170 163 172 186 221 198 200 189 180 168 142 163 188 195 103 136 152 334 2 173 168 198
248 253 250 241 224 149 140 131 133 124 129 142 136 131 114 109 120 119 132 129 132 150 165 181 193 197 191 202 177 163 177 174 148 161 141 136 75 94 131 283 306 10 77
247 249 265 179 149 124 133 138 133 127 123 128 120 133 132 128 115 114 131 131 129 144 176 169 176 190 183 185 191 193 185 181 172 175 173 160 164 179 154 199 259 148 24
258 222 197 178 154 153 140 133 132 126 118 113 119 130 132 136 137 146 144 144 140 173 191 170 173 175 186 193 183 182 192 185 189 191 201 192 185 154 151 146 147 122 97
246 229 199 171 154 146 140 130 133 123 119 116 117 115 128 124 128 140 141 154 169 172 160 166 163 181 187 190 189 186 189 185 199 207 206 199 202 182 170 178 144 83 70
233 208 154 150 142 141 137 133 127 126 122 121 120 122 123 127 141 146 140 156 152 160 156 146 155 182 179 178 173 186 191 186 193 215 214 204 212 197 194 189 160 143 148
206 161 149 141 134 132 124 123 128 133 132 126 130 135 141 134 141 145 149 157 143 134 137 141 168 173 179 180 174 184 203 193 205 207 201 201 203 184 168 181 164 140 132
170 151 139 132 132 130 133 133 132 132 133 135 130 135 141 137 149 147 153 149 140 143 147 171 172 178 158 172 183 209 179 164 157 155 172 199 204 183 173 120 113 103 105
133 144 137 134 140 140 138 141 143 138 148 138 132 138 134 145 153 150 151 146 146 150 166 168 150 213 187 170 200 191 171 164 169 171 153 98 134 182 155 123 123 118 113
135 141 134 140 143 145 143 142 150 149 144 128 134 137 151 156 159 151 142 141 147 153 155 146 167 187 167 189 183 185 179 184 193 189 185 149 130 117 114 111 116 114 101
153 161 140 146 150 150 153 153 153 157 142 137 145 153 171 161 160 141 148 145 161 160 164 169 173 169 158 163 154 134 156 180 181 177 151 122 115 120 122 121 124 121 116
165 187 151 152 154 152 155 158 158 160 148 144 151 162 158 150 141 135 139 142 164 177 156 130 124 130 129 127 139 123 125 114 93 93 109 117 120 119 134 144 137 133 125
171 174 155 156 159 161 162 162 165 162 150 148 147 147 145 139 141 135 132 129 128 118 112 115 123 113 89 8 92 146 135 129 103 101 99 118 120 105 133 138 138 148 142
169 172 166 162 163 166 166 167 167 146 148 142 149 156 149 143 145 136 131 127 128 110 107 115 117 114 101 3 105 138 119 124 126 124 126 113 102 130 129 127 122 114 98
168 171 165 160 162 155 156 148 144 152 145 142 143 146 153 141 138 135 128 121 115 116 121 130 128 126 103 6 122 118 112 112 117 121 116 112 108 114 125 131 130 134 130
173 170 162 158 155 154 150 151 146 146 148 150 153 164 152 142 145 145 148 130 126 116 131 127 144 141 112 40 132 119 118 101 100 95 102 105 100 116 120 116 112 107 94
171 167 161 156 156 156 148 147 153 152 160 161 166 161 147 147 152 145 149 131 133 129 121 128 136 111 124 27 146 116 116 103 87 77 79 105 113 105 103 114 118 115 122
167 153 158 167 169 152 149 154 156 167 173 154 143 144 145 148 144 140 133 129 122 114 118 124 122 103 31 57 93 105 96 110 101 95 100 96 109 100 94 100 112 116 120
188 162 162 171 161 156 154 156 173 171 150 145 146 144 149 145 140 138 121 122 125 123 123 133 122 76 74 40 96 131 129 132 116 113 103 109 120 110 98 92 114 112 117
178 169 164 151 159 161 162 164 180 148 146 147 144 142 140 130 138 133 148 138 129 141 151 161 143 146 56 57 146 134 130 112 98 108 118 126 118 97 100 123 124 115 124
170 157 149 153 156 163 168 178 150 152 151 149 140 143 144 136 131 126 158 160 153 156 170 171 162 147 159 112 107 118 97 85 82 100 101 108 98 96 117 126 123 125 136
134 151 158 165 167 160 161 152 149 148 152 152 149 152 141 144 137 132 161 167 178 179 176 185 170 162 185 192 167 149 139 126 109 105 110 114 112 126 137 131 118 124 135
130 139 152 155 160 167 161 149 154 151 147 149 151 155 148 145 148 157 134 40 55 179 185 164 146 159 160 151 160 149 127 132 138 97 136 121 120 135 141 137 133 128 130